Home   Weather   Langenthal   Past weeks

Flag for Switzerland Past Weather in Langenthal, Bern, Switzerland — Yesterday and Last 2 Weeks

Now
44 °F

Quite cool.


Feels Like: 39 °F
Forecast: 31 / 44 °F
Wind: 8 mph from West

Location: Wynau

Current Time: Feb 24, 2017 at 9:10:12 am

Latest Report: Feb 24, 2017 at 8:00 am


Visibility: N/A

Pressure: 29.93 "Hg

Humidity: 54%

Dew Point: 28 °F

Location of LangenthalLocation

Past Weather in Langenthal — Graph

°F

Langenthal Temperature Yesterday

Maximum temperature yesterday: 67 °F (at 3:00 pm)
Minimum temperature yesterday: 33 °F (at 8:00 am)
Average temperature yesterday: 51 °F

High & Low Weather Summary for the Past Weeks

 TemperatureHumidityPressure
High67 °F (Feb 23, 3:00 pm)100% (Feb 14, 11:00 pm)30.68 "Hg (Feb 14, 11:00 pm)
Low26 °F (Feb 15, 7:00 am)19% (Feb 23, 3:00 pm)29.61 "Hg (Feb 23, 5:00 pm)
Average39 °F83%30.26 "Hg
* Reported Feb 9 7:00 am — Feb 24 7:00 am, Langenthal, Weather by CustomWeather, © 2017

Note: Actual official high and low records may vary slightly from our data, if they occured in-between our weather recording intervals... More about our weather records

Advertising

Langenthal Weather History for the Previous 24 Hours

Scroll right to see more
 ConditionsComfort  
Time TempWeatherWind HumidityBarometerVisibility
7:00 am
Fri, Feb 24
44 °FQuite cool.7 mph58%29.91 "HgN/A
6:00 am44 °FQuite cool.7 mph53%29.89 "HgN/A
5:00 am45 °FQuite cool.10 mph54%29.87 "HgN/A
4:00 am46 °FCool.7 mph49%29.85 "HgN/A
3:00 am46 °FCool.9 mph56%29.84 "HgN/A
2:00 am47 °FCool.10 mph63%29.80 "HgN/A
1:00 am52 °FCool.14 mph57%29.75 "HgN/A
12:00 am54 °FCool.12 mph54%29.72 "HgN/A
11:00 pm
Thu, Feb 23
56 °FRefreshingly cool.15 mph48%29.70 "HgN/A
10:00 pm57 °FRefreshingly cool.16 mph43%29.68 "HgN/A
9:00 pm60 °FRefreshingly cool.16 mph35%29.65 "HgN/A
8:00 pm59 °FRefreshingly cool.12 mph32%29.64 "HgN/A
7:00 pm61 °FRefreshingly cool.14 mph29%29.63 "HgN/A
6:00 pm61 °FRefreshingly cool.12 mph28%29.62 "HgN/A
5:00 pm63 °FMild.18 mph22%29.61 "HgN/A
4:00 pm65 °FMild.17 mph21%29.62 "HgN/A
3:00 pm67 °FMild.23 mph19%29.63 "HgN/A
2:00 pm66 °FMild.17 mph24%29.67 "HgN/A
1:00 pm63 °FMild.13 mph31%29.73 "HgN/A
12:00 pm59 °FRefreshingly cool.7 mph40%29.79 "HgN/A
11:00 am54 °FCool.8 mph48%29.83 "HgN/A
10:00 am50 °FCool.10 mph54%29.85 "HgN/A
9:00 am45 °FCool.6 mph70%29.89 "HgN/A
Weather by CustomWeather, © 2017

See weather overviewHow to use our weather pages